START_TIME,STEP,MOV.,M34,t_acc.,L5,t_acc.,L18,t_acc.,L14,t_acc.
1980-11-14 06:00:13.270 ,5,0,0.,12.0,0.,12.0,0.,12.0,0.,12.0
1980-11-14 06:00:25.270 ,5,0,0.,12.0,0.,12.0,0.,12.0,0.,12.0
1980-11-14 06:00:37.270 ,6,1,0.,12.0,0.,12.0,0.,12.0,0.,12.0
1980-11-14 06:00:49.270 ,6,1,0.,12.0,0.,12.0,0.,12.0,0.,12.0
1980-11-14 06:01:01.270 ,6,0,0.,12.0,0.,12.0,0.,12.0,0.,12.0
1980-11-14 06:01:13.270 ,6,0,0.,12.0,0.,12.0,0.,12.0,0.,12.0
1980-11-14 06:01:25.270 ,7,1,0.,12.0,0.,12.0,0.,12.0,0.,12.0
1980-11-14 06:01:37.270 ,7,1,0.,12.0,1.,12.0,0.,12.0,0.,12.0
1980-11-14 06:01:49.270 ,7,0,0.,12.0,4.,12.0,0.,12.0,0.,12.0
1980-11-14 06:02:01.270 ,7,0,0.,12.0,3.,12.0,0.,12.0,0.,12.0
1980-11-14 06:02:13.270 ,7,1,0.,12.0,5.,12.0,0.,12.0,0.,12.0
1980-11-14 06:02:25.270 ,7,1,0.,12.0,9.,12.0,0.,12.0,0.,12.0
1980-11-14 06:02:37.270 ,7,0,0.,12.0,5.,12.0,0.,12.0,0.,12.0
1980-11-14 06:02:49.270 ,7,0,0.,12.0,2.,12.0,0.,12.0,0.,12.0
1980-11-14 06:03:01.270 ,6,1,0.,12.0,5.,12.0,0.,12.0,0.,12.0
1980-11-14 06:03:13.270 ,6,1,0.,12.0,1.,12.0,0.,12.0,0.,12.0
1980-11-14 06:03:25.270 ,6,0,0.,12.0,0.,12.0,0.,12.0,0.,12.0
1980-11-14 06:03:37.270 ,6,0,0.,12.0,0.,12.0,0.,12.0,0.,12.0
1980-11-14 06:03:49.270 ,5,1,0.,12.0,0.,12.0,0.,12.0,0.,12.0
1980-11-14 06:04:01.270 ,5,1,0.,12.0,0.,12.0,0.,12.0,0.,12.0
1980-11-14 06:04:13.270 ,5,0,0.,12.0,0.,12.0,0.,12.0,0.,12.0
1980-11-14 06:04:25.270 ,5,0,0.,12.0,0.,12.0,0.,12.0,0.,12.0
1980-11-14 06:04:37.270 ,4,1,0.,12.0,0.,12.0,0.,12.0,0.,12.0
1980-11-14 06:04:49.270 ,4,1,0.,12.0,0.,12.0,0.,12.0,0.,12.0
1980-11-14 06:05:01.270 ,4,0,0.,12.0,0.,12.0,0.,12.0,0.,12.0
1980-11-14 06:05:13.270 ,4,0,0.,12.0,0.,12.0,0.,12.0,0.,12.0
1980-11-14 06:05:25.270 ,3,1,0.,12.0,0.,12.0,0.,12.0,0.,12.0
1980-11-14 06:05:37.270 ,3,1,0.,12.0,0.,12.0,0.,12.0,0.,12.0
1980-11-14 06:05:49.270 ,3,0,0.,12.0,0.,12.0,0.,12.0,0.,12.0
1980-11-14 06:06:01.270 ,3,0,0.,12.0,0.,12.0,0.,12.0,0.,12.0
1980-11-14 06:06:13.270 ,2,1,0.,12.0,0.,12.0,0.,12.0,0.,12.0
1980-11-14 06:06:25.270 ,2,1,0.,12.0,0.,12.0,0.,12.0,0.,12.0
1980-11-14 06:06:37.270 ,2,0,0.,12.0,0.,12.0,0.,12.0,0.,12.0
1980-11-14 06:06:49.270 ,2,0,0.,12.0,0.,12.0,0.,12.0,0.,12.0
1980-11-14 06:07:01.270 ,1,1,0.,12.0,0.,12.0,0.,12.0,0.,12.0
1980-11-14 06:07:13.270 ,1,1,0.,12.0,0.,12.0,0.,12.0,0.,12.0
1980-11-14 06:07:25.270 ,1,0,0.,12.0,0.,12.0,0.,12.0,0.,12.0
1980-11-14 06:07:37.270 ,1,0,0.,12.0,0.,12.0,0.,12.0,0.,12.0
1980-11-14 06:07:49.270 ,0,1,0.,12.0,0.,12.0,0.,12.0,0.,12.0
1980-11-14 06:08:01.270 ,0,1,0.,12.0,0.,12.0,0.,12.0,0.,12.0
1980-11-14 06:08:13.270 ,0,0,0.,12.0,0.,12.0,0.,12.0,0.,12.0
1980-11-14 06:08:25.270 ,0,0,0.,12.0,0.,12.0,0.,12.0,0.,12.0
1980-11-14 06:08:37.270 ,0,1,0.,12.0,0.,12.0,0.,12.0,0.,12.0
1980-11-14 06:08:49.270 ,0,1,0.,12.0,0.,12.0,0.,12.0,0.,12.0
1980-11-14 06:09:01.270 ,0,0,0.,12.0,0.,12.0,0.,12.0,0.,12.0
1980-11-14 06:09:13.270 ,0,0,0.,12.0,0.,12.0,0.,12.0,0.,12.0
1980-11-14 06:09:25.270 ,1,1,0.,12.0,0.,12.0,0.,12.0,0.,12.0
1980-11-14 06:09:37.270 ,1,1,0.,12.0,0.,12.0,0.,12.0,0.,12.0
1980-11-14 06:09:49.270 ,1,0,0.,12.0,0.,12.0,0.,12.0,0.,12.0
1980-11-14 06:10:01.270 ,1,0,0.,12.0,0.,12.0,0.,12.0,0.,12.0
1980-11-14 06:10:13.270 ,2,1,0.,12.0,0.,12.0,0.,12.0,0.,12.0
1980-11-14 06:10:25.270 ,2,1,0.,12.0,0.,12.0,0.,12.0,0.,12.0
1980-11-14 06:10:37.270 ,2,0,0.,12.0,0.,12.0,0.,12.0,0.,12.0
1980-11-14 06:10:49.270 ,2,0,0.,12.0,0.,12.0,0.,12.0,0.,12.0
1980-11-14 06:11:01.270 ,3,1,0.,12.0,0.,12.0,0.,12.0,0.,12.0
1980-11-14 06:11:13.270 ,3,1,0.,12.0,1.,12.0,0.,12.0,0.,12.0
1980-11-14 06:11:25.270 ,3,0,0.,12.0,0.,12.0,0.,12.0,0.,12.0
1980-11-14 06:11:37.270 ,3,0,0.,12.0,0.,12.0,0.,12.0,0.,12.0
1980-11-14 06:11:49.270 ,4,1,0.,12.0,0.,12.0,0.,12.0,0.,12.0
1980-11-14 06:12:01.270 ,4,1,0.,12.0,0.,12.0,0.,12.0,0.,12.0
1980-11-14 06:12:13.270 ,4,0,0.,12.0,0.,12.0,0.,12.0,0.,12.0
1980-11-14 06:12:25.270 ,4,0,0.,12.0,0.,12.0,0.,12.0,0.,12.0
1980-11-14 06:12:37.270 ,5,1,0.,12.0,0.,12.0,0.,12.0,0.,12.0
1980-11-14 06:12:49.270 ,5,1,0.,12.0,0.,12.0,0.,12.0,0.,12.0
1980-11-14 06:13:01.270 ,5,0,0.,12.0,0.,12.0,0.,12.0,0.,12.0
1980-11-14 06:13:13.270 ,5,0,0.,12.0,0.,12.0,0.,12.0,0.,12.0
1980-11-14 06:13:25.270 ,6,1,0.,12.0,0.,12.0,0.,12.0,0.,12.0
1980-11-14 06:13:37.270 ,6,1,0.,12.0,0.,12.0,0.,12.0,0.,12.0
1980-11-14 06:13:49.270 ,6,0,0.,12.0,0.,12.0,0.,12.0,0.,12.0
1980-11-14 06:14:01.270 ,6,0,0.,12.0,0.,12.0,0.,12.0,0.,12.0
1980-11-14 06:14:13.270 ,7,1,0.,12.0,0.,12.0,0.,12.0,0.,12.0
1980-11-14 06:14:25.270 ,7,1,0.,12.0,2.,12.0,0.,12.0,0.,12.0
1980-11-14 06:14:37.270 ,7,0,0.,12.0,5.,12.0,0.,12.0,0.,12.0
1980-11-14 06:14:49.270 ,7,0,0.,12.0,9.,12.0,0.,12.0,0.,12.0
1980-11-14 06:15:01.270 ,7,1,0.,12.0,3.,12.0,0.,12.0,0.,12.0
1980-11-14 06:15:13.270 ,7,1,0.,12.0,6.,12.0,0.,12.0,0.,12.0
1980-11-14 06:15:25.270 ,7,0,0.,12.0,4.,12.0,0.,12.0,0.,12.0
1980-11-14 06:15:37.270 ,7,0,0.,12.0,10.,12.0,0.,12.0,0.,12.0
1980-11-14 06:15:49.270 ,6,1,0.,12.0,5.,12.0,0.,12.0,0.,12.0
1980-11-14 06:16:01.270 ,6,1,0.,12.0,0.,12.0,0.,12.0,0.,12.0
1980-11-14 06:16:13.270 ,6,0,0.,12.0,0.,12.0,0.,12.0,0.,12.0
1980-11-14 06:16:25.270 ,6,0,0.,12.0,0.,12.0,0.,12.0,0.,12.0
1980-11-14 06:16:37.270 ,5,1,0.,12.0,0.,12.0,0.,12.0,0.,12.0
1980-11-14 06:16:49.270 ,5,1,0.,12.0,0.,12.0,0.,12.0,0.,12.0
1980-11-14 06:17:01.270 ,5,0,0.,12.0,0.,12.0,0.,12.0,0.,12.0
1980-11-14 06:17:13.270 ,5,0,0.,12.0,0.,12.0,0.,12.0,0.,12.0
1980-11-14 06:17:25.270 ,4,1,0.,12.0,0.,12.0,0.,12.0,0.,12.0
1980-11-14 06:17:37.270 ,4,1,0.,12.0,0.,12.0,0.,12.0,0.,12.0
1980-11-14 06:17:49.270 ,4,0,0.,12.0,0.,12.0,0.,12.0,0.,12.0
1980-11-14 06:18:01.270 ,4,0,0.,12.0,0.,12.0,0.,12.0,0.,12.0
1980-11-14 06:18:13.270 ,3,1,0.,12.0,0.,12.0,0.,12.0,0.,12.0
1980-11-14 06:18:25.270 ,3,1,0.,12.0,0.,12.0,0.,12.0,0.,12.0
1980-11-14 06:18:37.270 ,3,0,0.,12.0,0.,12.0,0.,12.0,0.,12.0
1980-11-14 06:18:49.270 ,3,0,0.,12.0,0.,12.0,0.,12.0,0.,12.0
1980-11-14 06:19:01.270 ,2,1,0.,12.0,0.,12.0,0.,12.0,0.,12.0
1980-11-14 06:19:13.270 ,2,1,0.,12.0,0.,12.0,0.,12.0,0.,12.0
1980-11-14 06:19:25.270 ,2,0,0.,12.0,0.,12.0,0.,12.0,0.,12.0
1980-11-14 06:19:37.270 ,2,0,0.,12.0,0.,12.0,0.,12.0,0.,12.0
1980-11-14 06:19:49.270 ,1,1,0.,12.0,0.,12.0,0.,12.0,0.,12.0
1980-11-14 06:20:01.270 ,1,1,0.,12.0,0.,12.0,0.,12.0,0.,12.0
1980-11-14 06:20:13.270 ,1,0,0.,12.0,0.,12.0,0.,12.0,0.,12.0
1980-11-14 06:20:25.270 ,1,0,0.,12.0,0.,12.0,0.,12.0,0.,12.0
1980-11-14 06:20:37.270 ,0,1,0.,12.0,0.,12.0,0.,12.0,0.,12.0
1980-11-14 06:20:49.270 ,0,1,0.,12.0,0.,12.0,0.,12.0,0.,12.0
1980-11-14 06:21:01.270 ,0,0,0.,12.0,0.,12.0,0.,12.0,0.,12.0
1980-11-14 06:21:13.270 ,0,0,0.,12.0,0.,12.0,0.,12.0,0.,12.0
1980-11-14 06:21:25.270 ,0,1,0.,12.0,0.,12.0,0.,12.0,0.,12.0
1980-11-14 06:21:37.270 ,0,1,0.,12.0,0.,12.0,0.,12.0,0.,12.0
1980-11-14 06:21:49.270 ,0,0,0.,12.0,0.,12.0,0.,12.0,0.,12.0
1980-11-14 06:22:01.270 ,0,0,0.,12.0,0.,12.0,0.,12.0,0.,12.0
1980-11-14 06:22:13.270 ,1,1,0.,12.0,0.,12.0,0.,12.0,0.,12.0
1980-11-14 06:22:25.270 ,1,1,0.,12.0,0.,12.0,0.,12.0,0.,12.0
1980-11-14 06:22:37.270 ,1,0,0.,12.0,0.,12.0,0.,12.0,0.,12.0
1980-11-14 06:22:49.270 ,1,0,0.,12.0,0.,12.0,0.,12.0,0.,12.0
1980-11-14 06:23:01.270 ,2,1,0.,12.0,0.,12.0,0.,12.0,0.,12.0
1980-11-14 06:23:13.270 ,2,1,0.,12.0,0.,12.0,0.,12.0,0.,12.0
1980-11-14 06:23:25.270 ,2,0,0.,12.0,0.,12.0,0.,12.0,0.,12.0
1980-11-14 06:23:37.270 ,2,0,0.,12.0,0.,12.0,0.,12.0,0.,12.0
1980-11-14 06:23:49.270 ,3,1,0.,12.0,0.,12.0,0.,12.0,0.,12.0
1980-11-14 06:24:01.270 ,3,1,0.,12.0,0.,12.0,0.,12.0,0.,12.0
1980-11-14 06:24:13.270 ,3,0,0.,12.0,0.,12.0,0.,12.0,0.,12.0
1980-11-14 06:24:25.270 ,3,0,0.,12.0,0.,12.0,0.,12.0,0.,12.0
1980-11-14 06:24:37.270 ,4,1,0.,12.0,0.,12.0,0.,12.0,0.,12.0
1980-11-14 06:24:49.270 ,4,1,0.,12.0,0.,12.0,0.,12.0,0.,12.0
1980-11-14 06:25:01.270 ,4,0,0.,12.0,0.,12.0,0.,12.0,0.,12.0
1980-11-14 06:25:13.270 ,4,0,0.,12.0,0.,12.0,0.,12.0,0.,12.0
1980-11-14 06:25:25.270 ,5,1,0.,12.0,0.,12.0,0.,12.0,0.,12.0
1980-11-14 06:25:37.270 ,5,1,0.,12.0,0.,12.0,0.,12.0,0.,12.0
1980-11-14 06:25:49.270 ,5,0,0.,12.0,0.,12.0,0.,12.0,0.,12.0
1980-11-14 06:26:01.270 ,5,0,0.,12.0,0.,12.0,0.,12.0,0.,12.0
1980-11-14 06:26:13.270 ,6,1,0.,12.0,0.,12.0,0.,12.0,0.,12.0
1980-11-14 06:26:25.270 ,6,1,0.,12.0,0.,12.0,0.,12.0,0.,12.0
1980-11-14 06:26:37.270 ,6,0,0.,12.0,0.,12.0,0.,12.0,0.,12.0
1980-11-14 06:26:49.270 ,6,0,0.,12.0,0.,12.0,0.,12.0,0.,12.0
1980-11-14 06:27:01.270 ,7,1,0.,12.0,0.,12.0,0.,12.0,0.,12.0
1980-11-14 06:27:13.270 ,7,1,0.,12.0,3.,12.0,0.,12.0,0.,12.0
1980-11-14 06:27:25.270 ,7,0,0.,12.0,3.,12.0,0.,12.0,0.,12.0
1980-11-14 06:27:37.270 ,7,0,0.,12.0,5.,12.0,0.,12.0,0.,12.0
1980-11-14 06:27:49.270 ,7,1,0.,12.0,4.,12.0,0.,12.0,0.,12.0
1980-11-14 06:28:01.270 ,7,1,0.,12.0,6.,12.0,0.,12.0,0.,12.0
1980-11-14 06:28:13.270 ,7,0,0.,12.0,7.,12.0,0.,12.0,0.,12.0
1980-11-14 06:28:25.270 ,7,0,0.,12.0,5.,12.0,0.,12.0,0.,12.0
1980-11-14 06:28:37.270 ,6,1,0.,12.0,6.,12.0,0.,12.0,0.,12.0
1980-11-14 06:28:49.270 ,6,1,0.,12.0,1.,12.0,0.,12.0,0.,12.0
1980-11-14 06:29:01.270 ,0,0,0.,12.0,0.,12.0,0.,12.0,0.,12.0
1980-11-14 06:29:13.270 ,0,0,0.,12.0,0.,12.0,0.,12.0,0.,12.0
1980-11-14 07:28:49.870 ,0,0,,0,,0,,0,,0
1980-11-14 07:29:01.870 ,0,0,0.,12.0,0.,12.0,0.,12.0,0.,12.0
1980-11-14 07:29:01.270 ,0,0,0.,12.0,0.,12.0,0.,12.0,0.,12.0
1980-11-14 07:29:13.270 ,0,0,0.,12.0,0.,12.0,0.,12.0,0.,12.0
1980-11-14 07:29:25.270 ,5,1,0.,12.0,0.,12.0,0.,12.0,0.,12.0
1980-11-14 07:29:37.270 ,5,1,0.,12.0,0.,12.0,0.,12.0,0.,12.0
1980-11-14 07:29:49.270 ,5,0,0.,12.0,0.,12.0,0.,12.0,0.,12.0
1980-11-14 07:30:01.270 ,5,0,0.,12.0,0.,12.0,0.,12.0,1.,12.0
1980-11-14 07:30:13.270 ,6,1,0.,12.0,0.,12.0,0.,12.0,0.,12.0
1980-11-14 07:30:25.270 ,6,1,0.,12.0,0.,12.0,0.,12.0,0.,12.0
1980-11-14 07:30:37.270 ,6,0,0.,12.0,0.,12.0,0.,12.0,0.,12.0
1980-11-14 07:30:49.270 ,6,0,0.,12.0,0.,12.0,0.,12.0,0.,12.0
1980-11-14 07:31:01.270 ,7,1,0.,12.0,0.,12.0,0.,12.0,0.,12.0
1980-11-14 07:31:13.270 ,7,1,0.,12.0,3.,12.0,0.,12.0,0.,12.0
1980-11-14 07:31:25.270 ,7,0,0.,12.0,7.,12.0,0.,12.0,0.,12.0
1980-11-14 07:31:37.270 ,7,0,0.,12.0,4.,12.0,0.,12.0,0.,12.0
1980-11-14 07:31:49.270 ,7,1,0.,12.0,5.,12.0,0.,12.0,0.,12.0
1980-11-14 07:32:01.270 ,7,1,0.,12.0,5.,12.0,0.,12.0,0.,12.0
1980-11-14 07:32:13.270 ,7,0,0.,12.0,1.,12.0,0.,12.0,0.,12.0
1980-11-14 07:32:25.270 ,7,0,0.,12.0,4.,12.0,0.,12.0,0.,12.0
1980-11-14 07:32:37.270 ,6,1,0.,12.0,6.,12.0,0.,12.0,0.,12.0
1980-11-14 07:32:49.270 ,6,1,0.,12.0,4.,12.0,0.,12.0,0.,12.0
1980-11-14 07:33:01.270 ,6,0,0.,12.0,0.,12.0,0.,12.0,0.,12.0
1980-11-14 07:33:13.270 ,6,0,0.,12.0,0.,12.0,0.,12.0,0.,12.0
1980-11-14 07:33:25.270 ,5,1,0.,12.0,0.,12.0,0.,12.0,0.,12.0
1980-11-14 07:33:37.270 ,5,1,0.,12.0,0.,12.0,0.,12.0,0.,12.0
1980-11-14 07:33:49.270 ,5,0,0.,12.0,0.,12.0,0.,12.0,0.,12.0
1980-11-14 07:34:01.270 ,5,0,0.,12.0,0.,12.0,0.,12.0,0.,12.0
1980-11-14 07:34:13.270 ,4,1,0.,12.0,0.,12.0,0.,12.0,0.,12.0
1980-11-14 07:34:25.270 ,4,1,0.,12.0,0.,12.0,0.,12.0,0.,12.0
1980-11-14 07:34:37.270 ,4,0,0.,12.0,0.,12.0,0.,12.0,0.,12.0
1980-11-14 07:34:49.270 ,4,0,0.,12.0,0.,12.0,0.,12.0,0.,12.0
1980-11-14 07:35:01.270 ,3,1,0.,12.0,0.,12.0,0.,12.0,0.,12.0
1980-11-14 07:35:13.270 ,3,1,0.,12.0,0.,12.0,0.,12.0,0.,12.0
1980-11-14 07:35:25.270 ,3,0,0.,12.0,0.,12.0,0.,12.0,0.,12.0
1980-11-14 07:35:37.270 ,3,0,0.,12.0,0.,12.0,0.,12.0,0.,12.0
1980-11-14 07:35:49.270 ,2,1,0.,12.0,0.,12.0,0.,12.0,0.,12.0
1980-11-14 07:36:01.270 ,2,1,0.,12.0,0.,12.0,0.,12.0,0.,12.0
1980-11-14 07:36:13.270 ,2,0,0.,12.0,0.,12.0,0.,12.0,0.,12.0
1980-11-14 07:36:25.270 ,2,0,0.,12.0,0.,12.0,0.,12.0,0.,12.0
1980-11-14 07:36:37.270 ,1,1,0.,12.0,0.,12.0,0.,12.0,0.,12.0
1980-11-14 07:36:49.270 ,1,1,0.,12.0,0.,12.0,0.,12.0,0.,12.0
1980-11-14 07:37:01.270 ,1,0,0.,12.0,0.,12.0,0.,12.0,0.,12.0
1980-11-14 07:37:13.270 ,1,0,0.,12.0,0.,12.0,0.,12.0,0.,12.0
1980-11-14 07:37:25.270 ,0,1,0.,12.0,0.,12.0,0.,12.0,0.,12.0
1980-11-14 07:37:37.270 ,0,1,0.,12.0,0.,12.0,0.,12.0,0.,12.0
1980-11-14 07:37:49.270 ,0,0,0.,12.0,0.,12.0,0.,12.0,0.,12.0
1980-11-14 07:38:01.270 ,0,0,0.,12.0,0.,12.0,0.,12.0,0.,12.0
1980-11-14 07:38:13.270 ,0,1,0.,12.0,0.,12.0,0.,12.0,0.,12.0
1980-11-14 07:38:25.270 ,0,1,0.,12.0,0.,12.0,0.,12.0,0.,12.0
1980-11-14 07:38:37.270 ,0,0,0.,12.0,0.,12.0,0.,12.0,0.,12.0
1980-11-14 07:38:49.270 ,0,0,0.,12.0,0.,12.0,0.,12.0,0.,12.0
1980-11-14 07:39:01.270 ,1,1,0.,12.0,0.,12.0,0.,12.0,0.,12.0
1980-11-14 07:39:13.270 ,1,1,0.,12.0,0.,12.0,0.,12.0,0.,12.0
1980-11-14 07:39:25.270 ,1,0,0.,12.0,0.,12.0,0.,12.0,0.,12.0
1980-11-14 07:39:37.270 ,1,0,0.,12.0,0.,12.0,0.,12.0,0.,12.0
1980-11-14 07:39:49.270 ,2,1,0.,12.0,0.,12.0,0.,12.0,0.,12.0
1980-11-14 07:40:01.270 ,2,1,0.,12.0,0.,12.0,0.,12.0,0.,12.0
1980-11-14 07:40:13.270 ,2,0,0.,12.0,0.,12.0,0.,12.0,0.,12.0
1980-11-14 07:40:25.270 ,2,0,0.,12.0,0.,12.0,0.,12.0,0.,12.0
1980-11-14 07:40:37.270 ,3,1,0.,12.0,0.,12.0,0.,12.0,0.,12.0
1980-11-14 07:40:49.270 ,3,1,0.,12.0,0.,12.0,0.,12.0,0.,12.0
1980-11-14 07:41:01.270 ,3,0,0.,12.0,0.,12.0,0.,12.0,0.,12.0
1980-11-14 07:41:13.270 ,3,0,0.,12.0,0.,12.0,0.,12.0,0.,12.0
1980-11-14 07:41:25.270 ,4,1,0.,12.0,0.,12.0,0.,12.0,0.,12.0
1980-11-14 07:41:37.270 ,4,1,0.,12.0,0.,12.0,0.,12.0,0.,12.0
1980-11-14 07:41:49.270 ,4,0,0.,12.0,0.,12.0,0.,12.0,0.,12.0
1980-11-14 07:42:01.270 ,4,0,0.,12.0,0.,12.0,0.,12.0,0.,12.0
1980-11-14 07:42:13.270 ,5,1,0.,12.0,0.,12.0,0.,12.0,0.,12.0
1980-11-14 07:42:25.270 ,5,1,0.,12.0,0.,12.0,0.,12.0,0.,12.0
1980-11-14 07:42:37.270 ,5,0,0.,12.0,0.,12.0,0.,12.0,0.,12.0
1980-11-14 07:42:49.270 ,5,0,0.,12.0,0.,12.0,0.,12.0,0.,12.0
1980-11-14 07:43:01.270 ,6,1,0.,12.0,0.,12.0,0.,12.0,0.,12.0
1980-11-14 07:43:13.270 ,6,1,0.,12.0,0.,12.0,0.,12.0,0.,12.0
1980-11-14 07:43:25.270 ,6,0,0.,12.0,0.,12.0,0.,12.0,0.,12.0
1980-11-14 07:43:37.270 ,6,0,0.,12.0,0.,12.0,0.,12.0,0.,12.0
1980-11-14 07:43:49.270 ,7,1,0.,12.0,0.,12.0,0.,12.0,0.,12.0
1980-11-14 07:44:01.270 ,7,1,0.,12.0,4.,12.0,0.,12.0,0.,12.0
1980-11-14 07:44:13.270 ,7,0,0.,12.0,10.,12.0,0.,12.0,0.,12.0
1980-11-14 07:44:25.270 ,7,0,0.,12.0,7.,12.0,0.,12.0,0.,12.0
1980-11-14 07:44:37.270 ,7,1,0.,12.0,1.,12.0,0.,12.0,0.,12.0
1980-11-14 07:44:49.270 ,7,1,0.,12.0,7.,12.0,0.,12.0,0.,12.0
1980-11-14 07:45:01.270 ,7,0,0.,12.0,6.,12.0,0.,12.0,0.,12.0
1980-11-14 07:45:13.270 ,7,0,0.,12.0,8.,12.0,0.,12.0,0.,12.0
1980-11-14 07:45:25.270 ,6,1,0.,12.0,9.,12.0,0.,12.0,0.,12.0
1980-11-14 07:45:37.270 ,6,1,0.,12.0,3.,12.0,0.,12.0,0.,12.0
1980-11-14 07:45:49.270 ,6,0,0.,12.0,0.,12.0,0.,12.0,0.,12.0
1980-11-14 07:46:01.270 ,6,0,0.,12.0,0.,12.0,0.,12.0,0.,12.0
1980-11-14 07:46:13.270 ,5,1,0.,12.0,0.,12.0,0.,12.0,0.,12.0
1980-11-14 07:46:25.270 ,5,1,0.,12.0,0.,12.0,0.,12.0,0.,12.0
1980-11-14 07:46:37.270 ,5,0,0.,12.0,0.,12.0,0.,12.0,0.,12.0
1980-11-14 07:46:49.270 ,5,0,0.,12.0,0.,12.0,0.,12.0,0.,12.0
1980-11-14 07:47:01.270 ,4,1,0.,12.0,0.,12.0,0.,12.0,0.,12.0
1980-11-14 07:47:13.270 ,4,1,0.,12.0,0.,12.0,0.,12.0,0.,12.0
1980-11-14 07:47:25.270 ,4,0,0.,12.0,0.,12.0,0.,12.0,0.,12.0
1980-11-14 07:47:37.270 ,4,0,0.,12.0,0.,12.0,0.,12.0,0.,12.0
1980-11-14 07:47:49.270 ,3,1,0.,12.0,0.,12.0,0.,12.0,0.,12.0
1980-11-14 07:48:01.270 ,3,1,0.,12.0,0.,12.0,0.,12.0,0.,12.0
1980-11-14 07:48:13.270 ,3,0,0.,12.0,0.,12.0,0.,12.0,0.,12.0
1980-11-14 07:48:25.270 ,3,0,0.,12.0,0.,12.0,0.,12.0,0.,12.0
1980-11-14 07:48:37.270 ,2,1,0.,12.0,0.,12.0,0.,12.0,0.,12.0
1980-11-14 07:48:49.270 ,2,1,0.,12.0,0.,12.0,0.,12.0,0.,12.0
1980-11-14 07:49:01.270 ,2,0,0.,12.0,0.,12.0,0.,12.0,0.,12.0
1980-11-14 07:49:13.270 ,2,0,0.,12.0,0.,12.0,0.,12.0,0.,12.0
1980-11-14 07:49:25.270 ,1,1,0.,12.0,0.,12.0,0.,12.0,0.,12.0
1980-11-14 07:49:37.270 ,1,1,0.,12.0,0.,12.0,0.,12.0,0.,12.0
1980-11-14 07:49:49.270 ,1,0,0.,12.0,0.,12.0,0.,12.0,0.,12.0
1980-11-14 07:50:01.270 ,1,0,0.,12.0,0.,12.0,0.,12.0,0.,12.0
1980-11-14 07:50:13.270 ,0,1,0.,12.0,0.,12.0,0.,12.0,0.,12.0
1980-11-14 07:50:25.270 ,0,1,0.,12.0,0.,12.0,0.,12.0,0.,12.0
1980-11-14 07:50:37.270 ,0,0,0.,12.0,0.,12.0,0.,12.0,0.,12.0
1980-11-14 07:50:49.270 ,0,0,0.,12.0,0.,12.0,0.,12.0,0.,12.0
1980-11-14 07:51:01.270 ,0,1,0.,12.0,0.,12.0,0.,12.0,0.,12.0
1980-11-14 07:51:13.270 ,0,1,0.,12.0,0.,12.0,0.,12.0,0.,12.0
1980-11-14 07:51:25.270 ,0,0,0.,12.0,0.,12.0,0.,12.0,0.,12.0
1980-11-14 07:51:37.270 ,0,0,0.,12.0,0.,12.0,0.,12.0,0.,12.0
1980-11-14 07:51:49.270 ,1,1,0.,12.0,0.,12.0,0.,12.0,0.,12.0
1980-11-14 07:52:01.270 ,1,1,0.,12.0,0.,12.0,0.,12.0,0.,12.0
1980-11-14 07:52:13.270 ,1,0,0.,12.0,0.,12.0,0.,12.0,0.,12.0
1980-11-14 07:52:25.270 ,1,0,0.,12.0,0.,12.0,0.,12.0,0.,12.0
1980-11-14 07:52:37.270 ,2,1,0.,12.0,0.,12.0,0.,12.0,0.,12.0
1980-11-14 07:52:49.270 ,2,1,0.,12.0,0.,12.0,0.,12.0,0.,12.0
1980-11-14 07:53:01.270 ,2,0,0.,12.0,0.,12.0,0.,12.0,0.,12.0
1980-11-14 07:53:13.270 ,2,0,0.,12.0,0.,12.0,0.,12.0,0.,12.0
1980-11-14 07:53:25.270 ,3,1,0.,12.0,0.,12.0,0.,12.0,0.,12.0
1980-11-14 07:53:37.270 ,3,1,0.,12.0,0.,12.0,0.,12.0,0.,12.0
1980-11-14 07:53:49.270 ,3,0,0.,12.0,0.,12.0,0.,12.0,0.,12.0
1980-11-14 07:54:01.270 ,3,0,0.,12.0,0.,12.0,0.,12.0,0.,12.0
1980-11-14 07:54:13.270 ,4,1,0.,12.0,0.,12.0,0.,12.0,0.,12.0
1980-11-14 07:54:25.270 ,4,1,0.,12.0,0.,12.0,0.,12.0,0.,12.0
1980-11-14 07:54:37.270 ,4,0,0.,12.0,0.,12.0,0.,12.0,0.,12.0
1980-11-14 07:54:49.270 ,4,0,0.,12.0,0.,12.0,0.,12.0,0.,12.0
1980-11-14 07:55:01.270 ,5,1,0.,12.0,0.,12.0,0.,12.0,0.,12.0
1980-11-14 07:55:13.270 ,5,1,0.,12.0,0.,12.0,0.,12.0,0.,12.0
1980-11-14 07:55:25.270 ,5,0,0.,12.0,0.,12.0,0.,12.0,0.,12.0
1980-11-14 07:55:37.270 ,5,0,0.,12.0,0.,12.0,0.,12.0,0.,12.0
1980-11-14 07:55:49.270 ,6,1,0.,12.0,0.,12.0,0.,12.0,0.,12.0
1980-11-14 07:56:01.270 ,6,1,0.,12.0,0.,12.0,0.,12.0,0.,12.0
1980-11-14 07:56:13.270 ,6,0,0.,12.0,0.,12.0,0.,12.0,0.,12.0
1980-11-14 07:56:25.270 ,6,0,0.,12.0,0.,12.0,0.,12.0,0.,12.0
1980-11-14 07:56:37.270 ,7,1,0.,12.0,0.,12.0,0.,12.0,0.,12.0
1980-11-14 07:56:49.270 ,7,1,0.,12.0,1.,12.0,0.,12.0,0.,12.0
1980-11-14 07:57:01.270 ,7,0,0.,12.0,2.,12.0,0.,12.0,0.,12.0
1980-11-14 07:57:13.270 ,7,0,0.,12.0,1.,12.0,0.,12.0,0.,12.0
1980-11-14 07:57:25.270 ,7,1,0.,12.0,6.,12.0,0.,12.0,0.,12.0
1980-11-14 07:57:37.270 ,7,1,0.,12.0,7.,12.0,0.,12.0,0.,12.0
1980-11-14 07:57:49.270 ,7,0,0.,12.0,7.,12.0,0.,12.0,0.,12.0
1980-11-14 07:58:01.270 ,7,0,0.,12.0,4.,12.0,0.,12.0,0.,12.0
1980-11-14 07:58:13.270 ,6,1,0.,12.0,1.,12.0,0.,12.0,0.,12.0
1980-11-14 07:58:25.270 ,6,1,0.,12.0,0.,12.0,0.,12.0,0.,12.0
1980-11-14 07:58:37.270 ,6,0,0.,12.0,0.,12.0,0.,12.0,0.,12.0
1980-11-14 07:58:49.270 ,6,0,0.,12.0,0.,12.0,0.,12.0,0.,12.0
1980-11-14 07:59:01.270 ,5,1,0.,12.0,0.,12.0,0.,12.0,0.,12.0
1980-11-14 07:59:13.270 ,5,1,0.,12.0,0.,12.0,0.,12.0,0.,12.0
1980-11-14 07:59:25.270 ,5,0,0.,12.0,0.,12.0,0.,12.0,0.,12.0
1980-11-14 07:59:37.270 ,5,0,0.,12.0,0.,12.0,0.,12.0,0.,12.0
1980-11-14 07:59:49.270 ,4,1,0.,12.0,0.,12.0,0.,12.0,0.,12.0
1980-11-14 08:00:01.270 ,4,1,0.,12.0,0.,12.0,0.,12.0,0.,12.0
1980-11-14 08:00:13.270 ,4,0,0.,12.0,0.,12.0,0.,12.0,0.,12.0
1980-11-14 08:00:25.270 ,4,0,0.,12.0,0.,12.0,0.,12.0,0.,12.0
1980-11-14 08:00:37.270 ,3,1,0.,12.0,0.,12.0,0.,12.0,0.,12.0
1980-11-14 08:00:49.270 ,3,1,0.,12.0,0.,12.0,0.,12.0,0.,12.0
1980-11-14 08:01:01.270 ,3,0,0.,12.0,0.,12.0,0.,12.0,0.,12.0
1980-11-14 08:01:13.270 ,3,0,0.,12.0,0.,12.0,0.,12.0,0.,12.0
1980-11-14 08:01:25.270 ,2,1,0.,12.0,0.,12.0,0.,12.0,0.,12.0
1980-11-14 08:01:37.270 ,2,1,0.,12.0,0.,12.0,0.,12.0,0.,12.0
1980-11-14 08:01:49.270 ,2,0,0.,12.0,0.,12.0,0.,12.0,0.,12.0
1980-11-14 08:02:01.270 ,2,0,0.,12.0,0.,12.0,0.,12.0,0.,12.0
1980-11-14 08:02:13.270 ,1,1,0.,12.0,0.,12.0,0.,12.0,0.,12.0
1980-11-14 08:02:25.270 ,1,1,0.,12.0,0.,12.0,0.,12.0,0.,12.0
1980-11-14 08:02:37.270 ,1,0,0.,12.0,0.,12.0,0.,12.0,0.,12.0
1980-11-14 08:02:49.270 ,1,0,0.,12.0,0.,12.0,0.,12.0,0.,12.0
1980-11-14 08:03:01.270 ,0,1,0.,12.0,0.,12.0,0.,12.0,0.,12.0
1980-11-14 08:03:13.270 ,0,1,0.,12.0,0.,12.0,0.,12.0,0.,12.0
1980-11-14 08:03:25.270 ,0,0,0.,12.0,0.,12.0,0.,12.0,0.,12.0
1980-11-14 08:03:37.270 ,0,0,0.,12.0,0.,12.0,0.,12.0,0.,12.0
1980-11-14 08:03:49.270 ,0,1,0.,12.0,0.,12.0,0.,12.0,0.,12.0
1980-11-14 08:04:01.270 ,0,1,0.,12.0,0.,12.0,0.,12.0,0.,12.0
1980-11-14 08:04:13.270 ,0,0,0.,12.0,0.,12.0,0.,12.0,0.,12.0
1980-11-14 08:04:25.270 ,0,0,0.,12.0,0.,12.0,0.,12.0,0.,12.0
1980-11-14 08:04:37.270 ,1,1,0.,12.0,0.,12.0,0.,12.0,0.,12.0
1980-11-14 08:04:49.270 ,1,1,0.,12.0,0.,12.0,0.,12.0,0.,12.0
1980-11-14 08:05:01.270 ,1,0,0.,12.0,0.,12.0,0.,12.0,0.,12.0
1980-11-14 08:05:13.270 ,1,0,0.,12.0,0.,12.0,0.,12.0,0.,12.0
1980-11-14 08:05:25.270 ,2,1,0.,12.0,0.,12.0,0.,12.0,0.,12.0
1980-11-14 08:05:37.270 ,2,1,0.,12.0,0.,12.0,0.,12.0,0.,12.0
1980-11-14 08:05:49.270 ,2,0,0.,12.0,0.,12.0,0.,12.0,0.,12.0
1980-11-14 08:06:01.270 ,2,0,0.,12.0,0.,12.0,0.,12.0,0.,12.0
1980-11-14 08:06:13.270 ,3,1,0.,12.0,0.,12.0,0.,12.0,0.,12.0
1980-11-14 08:06:25.270 ,3,1,0.,12.0,0.,12.0,0.,12.0,0.,12.0
1980-11-14 08:06:37.270 ,3,0,0.,12.0,0.,12.0,0.,12.0,0.,12.0
1980-11-14 08:06:49.270 ,3,0,0.,12.0,0.,12.0,0.,12.0,0.,12.0
1980-11-14 08:07:01.270 ,4,1,0.,12.0,0.,12.0,0.,12.0,0.,12.0
1980-11-14 08:07:13.270 ,4,1,0.,12.0,0.,12.0,0.,12.0,0.,12.0
1980-11-14 08:07:25.270 ,4,0,0.,12.0,0.,12.0,0.,12.0,0.,12.0
1980-11-14 08:07:37.270 ,4,0,0.,12.0,0.,12.0,0.,12.0,0.,12.0
1980-11-14 08:07:49.270 ,5,1,0.,12.0,0.,12.0,0.,12.0,0.,12.0
1980-11-14 08:08:01.270 ,5,1,0.,12.0,0.,12.0,0.,12.0,0.,12.0
1980-11-14 08:08:13.270 ,5,0,0.,12.0,0.,12.0,0.,12.0,0.,12.0
1980-11-14 08:08:25.270 ,5,0,0.,12.0,0.,12.0,0.,12.0,0.,12.0
1980-11-14 08:08:37.270 ,6,1,0.,12.0,0.,12.0,0.,12.0,0.,12.0
1980-11-14 08:08:49.270 ,6,1,0.,12.0,0.,12.0,0.,12.0,0.,12.0
1980-11-14 08:09:01.270 ,6,0,0.,12.0,0.,12.0,0.,12.0,0.,12.0
1980-11-14 08:09:13.270 ,6,0,0.,12.0,0.,12.0,0.,12.0,0.,12.0
1980-11-14 08:09:25.270 ,7,1,0.,12.0,0.,12.0,0.,12.0,0.,12.0
1980-11-14 08:09:37.270 ,7,1,0.,12.0,2.,12.0,0.,12.0,0.,12.0
1980-11-14 08:09:49.270 ,7,0,0.,12.0,5.,12.0,0.,12.0,0.,12.0
1980-11-14 08:10:01.270 ,7,0,0.,12.0,3.,12.0,0.,12.0,0.,12.0
1980-11-14 08:10:13.270 ,7,1,0.,12.0,6.,12.0,0.,12.0,0.,12.0
1980-11-14 08:10:25.270 ,7,1,0.,12.0,3.,12.0,0.,12.0,0.,12.0
1980-11-14 08:10:37.270 ,7,0,0.,12.0,4.,12.0,0.,12.0,0.,12.0
1980-11-14 08:10:49.270 ,7,0,0.,12.0,5.,12.0,0.,12.0,0.,12.0
1980-11-14 08:11:01.270 ,6,1,0.,12.0,4.,12.0,0.,12.0,0.,12.0
1980-11-14 08:11:13.270 ,6,1,0.,12.0,0.,12.0,0.,12.0,0.,12.0
1980-11-14 08:11:25.270 ,6,0,0.,12.0,0.,12.0,0.,12.0,0.,12.0
1980-11-14 08:11:37.270 ,6,0,0.,12.0,0.,12.0,0.,12.0,0.,12.0
1980-11-14 08:11:49.270 ,5,1,0.,12.0,0.,12.0,0.,12.0,0.,12.0
1980-11-14 08:12:01.270 ,5,1,0.,12.0,0.,12.0,0.,12.0,0.,12.0
1980-11-14 08:12:13.270 ,5,0,0.,12.0,0.,12.0,0.,12.0,0.,12.0
1980-11-14 08:12:25.270 ,5,0,0.,12.0,0.,12.0,0.,12.0,0.,12.0
1980-11-14 08:12:37.270 ,4,1,0.,12.0,0.,12.0,0.,12.0,0.,12.0
1980-11-14 08:12:49.270 ,4,1,0.,12.0,0.,12.0,0.,12.0,0.,12.0
1980-11-14 08:13:01.270 ,4,0,0.,12.0,0.,12.0,0.,12.0,0.,12.0
1980-11-14 08:13:13.270 ,4,0,0.,12.0,0.,12.0,0.,12.0,0.,12.0
1980-11-14 08:13:25.270 ,3,1,0.,12.0,0.,12.0,0.,12.0,0.,12.0
1980-11-14 08:13:37.270 ,3,1,0.,12.0,0.,12.0,0.,12.0,0.,12.0
1980-11-14 08:13:49.270 ,3,0,0.,12.0,0.,12.0,0.,12.0,0.,12.0
1980-11-14 08:14:01.270 ,3,0,0.,12.0,0.,12.0,0.,12.0,0.,12.0
1980-11-14 08:14:13.270 ,2,1,0.,12.0,0.,12.0,0.,12.0,0.,12.0
1980-11-14 08:14:25.270 ,2,1,0.,12.0,0.,12.0,0.,12.0,0.,12.0
1980-11-14 08:14:37.270 ,2,0,0.,12.0,0.,12.0,0.,12.0,0.,12.0
1980-11-14 08:14:49.270 ,2,0,0.,12.0,0.,12.0,0.,12.0,0.,12.0
1980-11-14 08:15:01.270 ,1,1,0.,12.0,0.,12.0,0.,12.0,0.,12.0
1980-11-14 08:15:13.270 ,1,1,0.,12.0,0.,12.0,0.,12.0,0.,12.0
1980-11-14 08:15:25.270 ,1,0,0.,12.0,0.,12.0,0.,12.0,0.,12.0
1980-11-14 08:15:37.270 ,1,0,0.,12.0,0.,12.0,0.,12.0,0.,12.0
1980-11-14 08:15:49.270 ,0,1,0.,12.0,0.,12.0,0.,12.0,0.,12.0
1980-11-14 08:16:01.270 ,0,1,0.,12.0,0.,12.0,0.,12.0,0.,12.0
1980-11-14 08:16:13.270 ,0,0,0.,12.0,0.,12.0,0.,12.0,0.,12.0
1980-11-14 08:16:25.270 ,0,0,0.,12.0,0.,12.0,0.,12.0,0.,12.0